Weather past 2 weeks in Willemstad, Curaçao

Now
88 °F

Passing clouds.


Feels Like: 100 °F
Forecast: 82 / 89 °F
Wind: 14 mph from East

Location: Hato Airport - Curacao

Current Time: Sep 16, 2014 at 3:53:09 PM

Latest Report: Sep 16, 2014 at 3:00 PM


Visibility: N/A

Pressure: 29.86 "Hg

Humidity: 70%

Dew point: 77 °F

Location of WillemstadLocation

Historic Weather in Willemstad — Graph

°F

Willemstad temperature yesterday

Maximum temperature yesterday: 88 °F (at 9:00 AM)
Minimum temperature yesterday: 82 °F (at 12:00 AM)
Average temperature yesterday: 85 °F

Past Weeks' High & Low Weather Summary

 TemperatureHumidityPressure
High93 °F (Sep 5, 12:00 PM)89% (Sep 4, 5:00 AM)30.01 "Hg (Sep 4, 5:00 AM)
Low81 °F (Sep 11, 6:00 AM)56% (Sep 5, 12:00 PM)29.80 "Hg (Sep 6, 4:00 PM)
Average85 °F75%29.90 "Hg
* Reported Sep 1 1:00 PM — Sep 16 1:00 PM, Willemstad, Weather by CustomWeather, © 2014

Note: Actual official high and low records may vary slightly from our data, if they occured in-between our weather recording intervals... More about our weather records

Advertising

Willemstad weather history for previous 24 hours

 ConditionsComfort  
Time TempWeatherWind HumidityBarometerVisibility
1:00 PM
Sep 16
90 °FScattered clouds.13 mph67%29.92 "HgN/A
12:00 PM88 °FScattered clouds.13 mph70%29.95 "HgN/A
11:00 AM88 °FScattered clouds.13 mph70%29.98 "HgN/A
10:00 AM86 °FScattered clouds.10 mph75%29.98 "HgN/A
9:00 AM86 °FScattered clouds.10 mph75%29.98 "HgN/A
8:00 AM84 °FScattered clouds.10 mph79%29.95 "HgN/A
7:00 AM82 °FScattered clouds.7 mph79%29.95 "HgN/A
6:00 AM81 °FPassing clouds.5 mph84%29.92 "HgN/A
3:00 AM82 °FPassing clouds.10 mph79%29.89 "HgN/A
2:00 AM82 °FPassing clouds.8 mph79%29.92 "HgN/A
1:00 AM82 °FPassing clouds.8 mph79%29.92 "HgN/A
12:00 AM82 °FPassing clouds.8 mph84%29.95 "HgN/A
11:00 PM
Sep 15
82 °FPassing clouds.8 mph84%29.98 "HgN/A
10:00 PM82 °FPassing clouds.10 mph84%29.98 "HgN/A
9:00 PM84 °FPassing clouds.10 mph79%29.95 "HgN/A
8:00 PM84 °FPassing clouds.6 mph79%29.92 "HgN/A
7:00 PM84 °FPassing clouds.8 mph79%29.92 "HgN/A
6:00 PM84 °FScattered clouds.8 mph84%29.89 "HgN/A
5:00 PM86 °FScattered clouds.8 mph79%29.89 "HgN/A
4:00 PM86 °FPassing clouds.10 mph75%29.89 "HgN/A
3:00 PM88 °FScattered clouds.12 mph75%29.89 "HgN/A
Weather by CustomWeather, © 2014

See weather overviewHow to use our weather pages